CWEU

Eureka Airport

Eureka, Canada
Issued Wind Visibility Ceiling Temperature Dew Point Humidity Barometer
Sep-25
07:31 UTC
260°
5 KTS
1 1/2 miles Overcast
200' AGL
-14° C
F
-15° C
F
92% 29.94" Hg
1014.3 hPa
LIFR
Sep-25
07:10 UTC
300°
4 KTS
1 miles Vertical visibility
300' AGL
-14° C
F
-16° C
F
85% 29.95" Hg
1014.4 hPa
LIFR
Sep-25
07:00 UTC
Varies @2 KTS 1/2 miles Vertical visibility
300' AGL
-15° C
F
-16° C
F
92% 29.95" Hg
1014.5 hPa
LIFR
Sep-25
06:47 UTC
030°
4 KTS
1 miles Vertical visibility
300' AGL
-16° C
F
-18° C
-0° F
85% 29.95" Hg
1014.7 hPa
LIFR
Sep-25
06:26 UTC
310°
4 KTS
1 1/2 miles Overcast
300' AGL
-15° C
F
-17° C
F
85% 29.96" Hg
1014.8 hPa
LIFR
Sep-25
06:00 UTC
310°
3 KTS
1/4 miles Vertical visibility
200' AGL
-15° C
F
-17° C
F
85% 29.96" Hg
1015 hPa
LIFR
Sep-25
03:00 UTC
Varies @2 KTS 1/2 miles Overcast
200' AGL
-14° C
F
-16° C
F
85% 30.01" Hg
1016.6 hPa
LIFR
Sep-25
02:44 UTC
310°
2 KTS
1/4 miles Vertical visibility
200' AGL
-13° C
F
-15° C
F
85% 30.01" Hg
1016.7 hPa
LIFR
Sep-25
02:00 UTC
350°
3 KTS
1/2 miles Broken
300' AGL
-12° C
10° F
-14° C
F
85% 30.03" Hg
1017.1 hPa
LIFR
Sep-25
01:00 UTC
1/2 miles Overcast
300' AGL
-12° C
10° F
-14° C
F
85% 30.04" Hg
1017.7 hPa
LIFR
Sep-25
00:20 UTC
020°
3 KTS
1/2 miles Broken
300' AGL
-12° C
10° F
-14° C
F
85% 30.06" Hg
1018.1 hPa
LIFR
Sep-25
00:00 UTC
020°
4 KTS
3 miles Broken
1,100' AGL
-12° C
10° F
-13° C
F
92% 30.06" Hg
1018.3 hPa
MVFR
Sep-24
23:00 UTC
350°
8 KTS
6 miles Broken
1,300' AGL
-12° C
10° F
-14° C
F
85% 30.07" Hg
1018.6 hPa
MVFR
Sep-24
22:37 UTC
340°
9 KTS
6 miles Broken
1,300' AGL
-13° C
F
-15° C
F
85% 30.07" Hg
1018.5 hPa
MVFR
Sep-24
22:00 UTC
010°
6 KTS
10 miles Overcast
1,300' AGL
-11° C
12° F
-13° C
F
85% 30.07" Hg
1018.7 hPa
MVFR
Sep-24
21:00 UTC
340°
5 KTS
10 miles Broken
1,300' AGL
-10° C
14° F
-11° C
12° F
92% 30.08" Hg
1018.9 hPa
MVFR
Sep-24
20:00 UTC
260°
3 KTS
10 miles Broken
1,300' AGL
-10° C
14° F
-11° C
12° F
92% 30.08" Hg
1019.1 hPa
MVFR
Sep-24
19:00 UTC
170°
3 KTS
10 miles Broken
1,100' AGL
-10° C
14° F
-11° C
12° F
92% 30.08" Hg
1019.1 hPa
MVFR
Sep-24
18:00 UTC
10 miles Broken
1,100' AGL
-10° C
14° F
-11° C
12° F
92% 30.09" Hg
1019.3 hPa
MVFR
Sep-24
17:00 UTC
340°
5 KTS
10 miles Broken
1,100' AGL
-10° C
14° F
-12° C
10° F
85% 30.1" Hg
1019.5 hPa
MVFR
Sep-24
16:21 UTC
330°
5 KTS
8 miles Broken
1,200' AGL
-9° C
16° F
-11° C
12° F
86% 30.1" Hg
1019.5 hPa
MVFR
Sep-24
16:00 UTC
360°
6 KTS
15 miles Broken
1,300' AGL
-9° C
16° F
-12° C
10° F
79% 30.11" Hg
1019.8 hPa
MVFR
Sep-24
15:28 UTC
340°
6 KTS
15 miles Broken
1,300' AGL
-9° C
16° F
-12° C
10° F
79% 30.11" Hg
1020 hPa
MVFR
Sep-24
15:00 UTC
320°
5 KTS
15 miles Broken
1,200' AGL
-9° C
16° F
-11° C
12° F
86% 30.11" Hg
1020 hPa
MVFR
Sep-24
14:00 UTC
310°
7 KTS
15 miles Broken
1,200' AGL
-9° C
16° F
-11° C
12° F
86% 30.12" Hg
1020.2 hPa
MVFR
Sep-24
13:00 UTC
300°
5 KTS
15 miles Broken
1,200' AGL
-10° C
14° F
-12° C
10° F
85% 30.13" Hg
1020.5 hPa
MVFR
Sep-24
12:25 UTC
360°
5 KTS
15 miles Broken
1,300' AGL
-9° C
16° F
-11° C
12° F
86% 30.13" Hg
1020.6 hPa
MVFR
Sep-24
12:00 UTC
340°
5 KTS
15 miles Broken
2,000' AGL
-9° C
16° F
-12° C
10° F
79% 30.13" Hg
1020.6 hPa
MVFR
Sep-24
11:35 UTC
020°
6 KTS
15 miles Broken
2,000' AGL
-10° C
14° F
-12° C
10° F
85% 30.13" Hg
1020.5 hPa
MVFR
Sep-24
11:00 UTC
330°
2 KTS
15 miles Overcast
3,000' AGL
-11° C
12° F
-13° C
F
85% 30.13" Hg
1020.5 hPa
MVFR
Sep-24
10:00 UTC
Varies @4 KTS 15 miles Broken
3,000' AGL
-12° C
10° F
-15° C
F
79% 30.12" Hg
1020.3 hPa
MVFR
Sep-24
09:00 UTC
12 miles Broken
1,900' AGL
-10° C
14° F
-12° C
10° F
85% 30.13" Hg
1020.5 hPa
MVFR
Sep-24
08:00 UTC
12 miles Broken
1,800' AGL
-10° C
14° F
-13° C
F
79% 30.12" Hg
1020.2 hPa
MVFR